QPF
0.01 0.02 0.02 0.02 0.02 0.02 0.02 0.02 0.02 0.02 0.02 0.01 0.02 0.02 0.01 0.01 0.01 0.01 0.01 0.01 0.01 0.02 0.02 0.02 0.02 0.03 0.04 0.03 0.02 0.02 0.01 0.01 0.00 0.01 0.01 0.01 0.01 0.01 0.00 0.00 0.00 0.00 0.00
0.01 0.02 0.01 0.02 0.02 0.02 0.02 0.03 0.03 0.03 0.02 0.02 0.02 0.02 0.02 0.01 0.02 0.01 0.01 0.01 0.01 0.02 0.02 0.03 0.03 0.02 0.03 0.03 0.03 0.03 0.03 0.02 0.01 0.00 0.00 0.00 0.00 0.00 0.00 0.00 0.00 0.01 0.01
0.00 0.01 0.01 0.02 0.02 0.03 0.03 0.03 0.04 0.04 0.03 0.02 0.02 0.02 0.02 0.02 0.01 0.01 0.01 0.01 0.01 0.01 0.01 0.02 0.03 0.03 0.02 0.02 0.02 0.03 0.03 0.02 0.02 0.01 0.00 0.00 0.00 0.00 0.01 0.01 0.01 0.02 0.01
0.00 0.01 0.01 0.01 0.02 0.03 0.03 0.03 0.04 0.04 0.03 0.03 0.02 0.01 0.01 0.01 0.02 0.02 0.02 0.01 0.01 0.01 0.01 0.01 0.02 0.02 0.02 0.02 0.02 0.02 0.02 0.03 0.03 0.02 0.01 0.00 0.00 0.01 0.01 0.01 0.01 0.02 0.01
0.00 0.00 0.01 0.01 0.02 0.03 0.03 0.04 0.04 0.04 0.04 0.03 0.03 0.02 0.02 0.02 0.02 0.02 0.02 0.02 0.02 0.02 0.02 0.01 0.01 0.01 0.01 0.01 0.02 0.02 0.02 0.03 0.04 0.03 0.01 0.00 0.01 0.02 0.02 0.01 0.01 0.01 0.01
0.00 0.00 0.00 0.01 0.02 0.03 0.03 0.04 0.04 0.04 0.04 0.03 0.04 0.04 0.03 0.03 0.03 0.03 0.03 0.03 0.03 0.03 0.02 0.02 0.02 0.02 0.02 0.01 0.01 0.02 0.02 0.03 0.03 0.03 0.02 0.01 0.01 0.02 0.02 0.01 0.01 0.01 0.01
0.00 0.00 0.01 0.01 0.02 0.03 0.03 0.03 0.03 0.04 0.04 0.04 0.03 0.04 0.03 0.03 0.03 0.02 0.02 0.02 0.02 0.03 0.03 0.02 0.02 0.02 0.01 0.01 0.00 0.00 0.01 0.01 0.02 0.03 0.03 0.02 0.01 0.01 0.01 0.02 0.02 0.02 0.02
0.01 0.01 0.01 0.02 0.02 0.03 0.03 0.03 0.03 0.04 0.04 0.05 0.04 0.03 0.04 0.03 0.03 0.02 0.02 0.02 0.02 0.02 0.02 0.02 0.01 0.01 0.01 0.01 0.00 0.00 0.00 0.00 0.01 0.02 0.02 0.02 0.01 0.01 0.01 0.02 0.02 0.02 0.02
0.01 0.02 0.02 0.03 0.03 0.04 0.04 0.05 0.06 0.05 0.04 0.05 0.05 0.04 0.03 0.03 0.02 0.01 0.01 0.02 0.02 0.02 0.02 0.02 0.01 0.01 0.00 0.00 0.00 0.00 0.00 0.00 0.01 0.01 0.01 0.01 0.01 0.02 0.01 0.01 0.01 0.01 0.01
0.01 0.02 0.03 0.04 0.04 0.04 0.04 0.05 0.06 0.06 0.05 0.04 0.04 0.03 0.02 0.02 0.02 0.02 0.02 0.01 0.01 0.01 0.01 0.01 0.01 0.01 0.00 0.00 0.00 0.00 0.00 0.00 0.00 0.01 0.01 0.02 0.02 0.02 0.01 0.01 0.01 0.01 0.01
0.02 0.03 0.03 0.04 0.04 0.04 0.05 0.05 0.06 0.07 0.07 0.06 0.04 0.04 0.04 0.03 0.02 0.02 0.02 0.02 0.02 0.01 0.01 0.01 0.01 0.01 0.00 0.00 0.00 0.00 0.00 0.00 0.00 0.00 0.00 0.01 0.02 0.02 0.02 0.02 0.02 0.02 0.01
0.03 0.03 0.03 0.03 0.04 0.05 0.05 0.05 0.07 0.08 0.09 0.09 0.07 0.04 0.04 0.03 0.02 0.01 0.02 0.02 0.02 0.01 0.01 0.01 0.01 0.01 0.01 0.00 0.00 0.00 0.00 0.00 0.00 0.00 0.00 0.00 0.01 0.01 0.02 0.02 0.03 0.02 0.01
0.03 0.03 0.03 0.03 0.04 0.05 0.05 0.06 0.07 0.09 0.11 0.12 0.10 0.06 0.05 0.04 0.02 0.01 0.01 0.02 0.01 0.01 0.01 0.01 0.00 0.00 0.00 0.00 0.00 0.00 0.00 0.00 0.00 0.00 0.00 0.00 0.00 0.01 0.01 0.01 0.02 0.02 0.01
0.04 0.05 0.04 0.04 0.04 0.04 0.06 0.06 0.07 0.09 0.11 0.12 0.10 0.09 0.06 0.04 0.03 0.01 0.01 0.01 0.01 0.00 0.00 0.00 0.00 0.00 0.00 0.00 0.01 0.01 0.01 0.01 0.00 0.00 0.00 0.00 0.00 0.00 0.00 0.00 0.00 0.01 0.01
0.06 0.07 0.06 0.05 0.05 0.05 0.06 0.07 0.08 0.09 0.11 0.13 0.11 0.10 0.09 0.04 0.02 0.01 0.00 0.00 0.00 0.00 0.00 0.00 0.00 0.00 0.00 0.00 0.01 0.01 0.01 0.01 0.01 0.00 0.00 0.00 0.00 0.00 0.00 0.00 0.00 0.01 0.01
0.07 0.09 0.09 0.08 0.07 0.07 0.06 0.06 0.06 0.09 0.11 0.14 0.16 0.13 0.11 0.07 0.03 0.01 0.00 0.00 0.00 0.00 0.00 0.00 0.00 0.00 0.00 0.00 0.01 0.01 0.02 0.02 0.02 0.01 0.01 0.00 0.00 0.00 0.00 0.01 0.01 0.01 0.01
0.08 0.11 0.11 0.11 0.09 0.09 0.07 0.06 0.05 0.08 0.11 0.13 0.17 0.19 0.16 0.11 0.06 0.02 0.01 0.00 0.00 0.00 0.00 0.00 0.00 0.00 0.00 0.00 0.00 0.01 0.01 0.02 0.02 0.02 0.01 0.01 0.00 0.00 0.00 0.01 0.01 0.01 0.01
0.08 0.11 0.12 0.13 0.12 0.11 0.10 0.08 0.07 0.08 0.11 0.14 0.16 0.19 0.23 0.21 0.13 0.06 0.02 0.01 0.00 0.00 0.00 0.00 0.00 0.00 0.00 0.00 0.00 0.01 0.01 0.01 0.02 0.03 0.02 0.02 0.01 0.01 0.00 0.01 0.01 0.01 0.01
0.08 0.09 0.11 0.13 0.13 0.14 0.12 0.11 0.10 0.10 0.12 0.15 0.15 0.18 0.22 0.27 0.24 0.15 0.06 0.01 0.01 0.00 0.00 0.00 0.00 0.00 0.00 0.00 0.00 0.01 0.01 0.01 0.02 0.02 0.03 0.02 0.02 0.01 0.01 0.01 0.01 0.01 0.00
0.07 0.09 0.09 0.12 0.14 0.15 0.14 0.13 0.13 0.11 0.12 0.12 0.14 0.14 0.17 0.22 0.29 0.26 0.15 0.06 0.02 0.01 0.00 0.00 0.00 0.00 0.00 0.00 0.00 0.00 0.01 0.02 0.02 0.02 0.02 0.01 0.01 0.01 0.01 0.01 0.01 0.01 0.00
0.06 0.08 0.08 0.09 0.10 0.12 0.13 0.14 0.15 0.14 0.15 0.14 0.15 0.13 0.13 0.16 0.21 0.28 0.23 0.13 0.05 0.02 0.01 0.00 0.00 0.00 0.00 0.00 0.00 0.01 0.01 0.01 0.02 0.03 0.02 0.01 0.01 0.01 0.01 0.02 0.02 0.01 0.00
0.05 0.07 0.10 0.10 0.10 0.08 0.10 0.12 0.13 0.13 0.14 0.12 0.12 0.13 0.13 0.14 0.15 0.19 0.23 0.18 0.11 0.05 0.02 0.02 0.01 0.01 0.01 0.01 0.02 0.02 0.02 0.02 0.01 0.02 0.03 0.02 0.02 0.01 0.01 0.01 0.01 0.01 0.01
0.04 0.07 0.10 0.13 0.12 0.10 0.08 0.12 0.14 0.11 0.10 0.11 0.10 0.11 0.11 0.11 0.12 0.14 0.18 0.18 0.14 0.10 0.06 0.04 0.03 0.03 0.02 0.02 0.02 0.02 0.01 0.01 0.01 0.01 0.01 0.02 0.02 0.01 0.01 0.00 0.01 0.01 0.01
0.04 0.06 0.08 0.12 0.14 0.13 0.09 0.10 0.15 0.11 0.07 0.07 0.08 0.10 0.10 0.09 0.09 0.11 0.16 0.19 0.18 0.13 0.09 0.07 0.05 0.03 0.01 0.01 0.01 0.00 0.00 0.00 0.00 0.00 0.01 0.01 0.01 0.01 0.01 0.01 0.01 0.01 0.01
0.04 0.06 0.07 0.08 0.12 0.17 0.16 0.12 0.15 0.15 0.08 0.05 0.06 0.07 0.09 0.08 0.08 0.09 0.11 0.15 0.19 0.16 0.11 0.08 0.06 0.04 0.02 0.01 0.01 0.01 0.00 0.00 0.00 0.00 0.00 0.01 0.01 0.01 0.01 0.01 0.01 0.02 0.02
0.04 0.05 0.08 0.08 0.08 0.13 0.20 0.16 0.15 0.17 0.12 0.05 0.04 0.05 0.07 0.08 0.07 0.08 0.09 0.10 0.13 0.15 0.13 0.12 0.10 0.08 0.05 0.04 0.02 0.02 0.01 0.01 0.00 0.00 0.00 0.00 0.01 0.01 0.01 0.00 0.00 0.01 0.01
MSLP
1018.05 1018.21 1018.36 1018.55 1018.82 1019.15 1019.49 1019.80 1020.01 1020.11 1020.09 1019.99 1019.87 1019.78 1019.76 1019.80 1019.90 1020.01 1020.09 1020.11 1020.06 1019.96 1019.83 1019.73 1019.67 1019.67 1019.72 1019.79 1019.85 1019.86 1019.80 1019.69 1019.53 1019.36 1019.20 1019.08 1019.00 1018.95 1018.91 1018.86 1018.78 1018.66 1018.52
1017.90 1018.09 1018.29 1018.55 1018.89 1019.29 1019.68 1020.01 1020.24 1020.33 1020.31 1020.21 1020.10 1020.03 1020.03 1020.11 1020.24 1020.38 1020.49 1020.53 1020.50 1020.41 1020.31 1020.21 1020.16 1020.15 1020.19 1020.23 1020.24 1020.21 1020.11 1019.95 1019.77 1019.58 1019.43 1019.32 1019.26 1019.22 1019.18 1019.13 1019.03 1018.89 1018.73
1017.83 1018.01 1018.24 1018.55 1018.94 1019.38 1019.82 1020.18 1020.43 1020.54 1020.54 1020.47 1020.39 1020.35 1020.38 1020.48 1020.62 1020.77 1020.87 1020.91 1020.88 1020.81 1020.71 1020.63 1020.58 1020.58 1020.60 1020.61 1020.59 1020.52 1020.38 1020.20 1020.00 1019.82 1019.67 1019.58 1019.54 1019.52 1019.50 1019.44 1019.34 1019.20 1019.02
1017.85 1018.01 1018.24 1018.57 1019.00 1019.47 1019.94 1020.33 1020.60 1020.75 1020.78 1020.75 1020.71 1020.71 1020.76 1020.87 1021.01 1021.14 1021.23 1021.25 1021.21 1021.13 1021.04 1020.97 1020.93 1020.93 1020.95 1020.95 1020.91 1020.81 1020.66 1020.47 1020.27 1020.09 1019.97 1019.90 1019.87 1019.87 1019.85 1019.80 1019.70 1019.55 1019.38
1017.95 1018.10 1018.32 1018.67 1019.11 1019.60 1020.08 1020.49 1020.79 1020.96 1021.03 1021.05 1021.05 1021.08 1021.15 1021.27 1021.40 1021.51 1021.56 1021.56 1021.50 1021.41 1021.32 1021.26 1021.23 1021.23 1021.25 1021.25 1021.21 1021.11 1020.96 1020.78 1020.59 1020.44 1020.33 1020.28 1020.26 1020.26 1020.25 1020.19 1020.09 1019.94 1019.76
1018.11 1018.26 1018.49 1018.85 1019.30 1019.79 1020.27 1020.68 1020.99 1021.18 1021.29 1021.34 1021.38 1021.44 1021.54 1021.66 1021.77 1021.86 1021.89 1021.86 1021.79 1021.69 1021.60 1021.54 1021.52 1021.53 1021.56 1021.56 1021.52 1021.44 1021.30 1021.14 1020.98 1020.85 1020.77 1020.72 1020.70 1020.69 1020.66 1020.59 1020.47 1020.31 1020.13
1018.30 1018.46 1018.73 1019.10 1019.56 1020.06 1020.52 1020.92 1021.22 1021.42 1021.54 1021.62 1021.69 1021.78 1021.90 1022.03 1022.14 1022.21 1022.23 1022.19 1022.11 1022.01 1021.92 1021.86 1021.84 1021.86 1021.88 1021.89 1021.86 1021.79 1021.68 1021.55 1021.43 1021.33 1021.26 1021.22 1021.19 1021.14 1021.07 1020.97 1020.82 1020.65 1020.46
1018.45 1018.67 1018.99 1019.41 1019.88 1020.37 1020.83 1021.20 1021.48 1021.67 1021.79 1021.89 1021.98 1022.10 1022.23 1022.37 1022.50 1022.57 1022.59 1022.56 1022.48 1022.39 1022.30 1022.24 1022.22 1022.23 1022.24 1022.24 1022.21 1022.16 1022.08 1021.99 1021.90 1021.83 1021.78 1021.74 1021.68 1021.60 1021.48 1021.33 1021.14 1020.94 1020.74
1018.54 1018.85 1019.24 1019.71 1020.21 1020.71 1021.14 1021.49 1021.75 1021.92 1022.04 1022.14 1022.25 1022.39 1022.54 1022.70 1022.84 1022.94 1022.98 1022.96 1022.90 1022.82 1022.74 1022.68 1022.64 1022.62 1022.61 1022.59 1022.56 1022.51 1022.46 1022.41 1022.37 1022.33 1022.30 1022.26 1022.18 1022.05 1021.88 1021.67 1021.43 1021.19 1020.97
1018.55 1018.95 1019.43 1019.96 1020.50 1021.00 1021.42 1021.75 1021.99 1022.15 1022.26 1022.37 1022.49 1022.65 1022.82 1023.00 1023.17 1023.29 1023.35 1023.36 1023.32 1023.26 1023.18 1023.11 1023.06 1023.01 1022.96 1022.92 1022.88 1022.84 1022.81 1022.79 1022.79 1022.80 1022.79 1022.75 1022.66 1022.50 1022.28 1022.01 1021.72 1021.44 1021.19
1018.49 1018.98 1019.54 1020.12 1020.69 1021.20 1021.63 1021.95 1022.17 1022.33 1022.45 1022.57 1022.71 1022.87 1023.07 1023.26 1023.44 1023.58 1023.67 1023.70 1023.69 1023.64 1023.58 1023.50 1023.43 1023.35 1023.27 1023.20 1023.14 1023.10 1023.10 1023.12 1023.16 1023.21 1023.24 1023.22 1023.13 1022.95 1022.70 1022.38 1022.05 1021.73 1021.45
1018.37 1018.94 1019.55 1020.18 1020.77 1021.29 1021.72 1022.04 1022.28 1022.45 1022.59 1022.73 1022.88 1023.07 1023.26 1023.46 1023.64 1023.79 1023.89 1023.94 1023.95 1023.93 1023.87 1023.80 1023.71 1023.61 1023.51 1023.42 1023.35 1023.31 1023.32 1023.38 1023.47 1023.56 1023.63 1023.64 1023.57 1023.39 1023.12 1022.79 1022.42 1022.07 1021.76
1018.23 1018.84 1019.48 1020.12 1020.72 1021.25 1021.68 1022.03 1022.29 1022.49 1022.67 1022.84 1023.02 1023.21 1023.41 1023.60 1023.77 1023.91 1024.00 1024.07 1024.09 1024.08 1024.05 1023.98 1023.90 1023.79 1023.68 1023.58 1023.51 1023.48 1023.51 1023.59 1023.72 1023.86 1023.97 1024.01 1023.97 1023.81 1023.55 1023.21 1022.84 1022.47 1022.13
1018.08 1018.70 1019.35 1019.98 1020.57 1021.10 1021.54 1021.91 1022.21 1022.47 1022.69 1022.91 1023.11 1023.31 1023.50 1023.67 1023.82 1023.93 1024.02 1024.07 1024.11 1024.12 1024.10 1024.07 1024.00 1023.91 1023.81 1023.71 1023.65 1023.63 1023.67 1023.77 1023.92 1024.09 1024.23 1024.31 1024.30 1024.18 1023.95 1023.63 1023.27 1022.89 1022.55
1017.94 1018.55 1019.17 1019.78 1020.35 1020.86 1021.32 1021.72 1022.07 1022.39 1022.67 1022.93 1023.17 1023.38 1023.56 1023.70 1023.82 1023.90 1023.96 1024.01 1024.05 1024.08 1024.09 1024.08 1024.05 1023.99 1023.91 1023.84 1023.79 1023.77 1023.82 1023.93 1024.08 1024.26 1024.42 1024.52 1024.54 1024.46 1024.27 1023.99 1023.66 1023.31 1022.96
1017.79 1018.38 1018.98 1019.55 1020.09 1020.59 1021.06 1021.50 1021.90 1022.28 1022.62 1022.93 1023.20 1023.42 1023.59 1023.71 1023.80 1023.85 1023.90 1023.94 1023.98 1024.03 1024.07 1024.10 1024.10 1024.08 1024.04 1023.98 1023.94 1023.93 1023.97 1024.06 1024.20 1024.36 1024.51 1024.62 1024.66 1024.61 1024.47 1024.25 1023.97 1023.65 1023.33
1017.60 1018.19 1018.77 1019.31 1019.84 1020.34 1020.82 1021.29 1021.74 1022.17 1022.57 1022.92 1023.22 1023.45 1023.62 1023.73 1023.80 1023.84 1023.87 1023.91 1023.96 1024.03 1024.10 1024.16 1024.20 1024.21 1024.19 1024.16 1024.12 1024.11 1024.13 1024.19 1024.28 1024.40 1024.52 1024.61 1024.66 1024.63 1024.53 1024.37 1024.15 1023.89 1023.61
1017.36 1017.97 1018.54 1019.08 1019.60 1020.11 1020.61 1021.11 1021.61 1022.08 1022.52 1022.91 1023.23 1023.47 1023.65 1023.76 1023.83 1023.87 1023.91 1023.96 1024.03 1024.12 1024.21 1024.29 1024.35 1024.39 1024.39 1024.36 1024.32 1024.29 1024.28 1024.29 1024.33 1024.39 1024.46 1024.52 1024.55 1024.53 1024.47 1024.36 1024.21 1024.01 1023.79
1017.03 1017.68 1018.28 1018.84 1019.38 1019.91 1020.45 1020.98 1021.50 1022.01 1022.47 1022.87 1023.21 1023.47 1023.66 1023.80 1023.89 1023.96 1024.03 1024.11 1024.20 1024.30 1024.40 1024.50 1024.56 1024.60 1024.60 1024.57 1024.53 1024.47 1024.43 1024.39 1024.38 1024.38 1024.38 1024.39 1024.39 1024.36 1024.32 1024.25 1024.16 1024.03 1023.87
1016.61 1017.31 1017.96 1018.57 1019.16 1019.74 1020.31 1020.87 1021.42 1021.93 1022.40 1022.81 1023.15 1023.43 1023.65 1023.82 1023.96 1024.08 1024.20 1024.32 1024.44 1024.56 1024.66 1024.75 1024.81 1024.83 1024.82 1024.78 1024.73 1024.66 1024.59 1024.51 1024.45 1024.39 1024.34 1024.29 1024.25 1024.20 1024.16 1024.12 1024.07 1023.99 1023.88
1016.10 1016.85 1017.57 1018.25 1018.91 1019.54 1020.16 1020.76 1021.32 1021.84 1022.30 1022.70 1023.04 1023.33 1023.58 1023.80 1024.00 1024.19 1024.37 1024.55 1024.71 1024.84 1024.95 1025.02 1025.05 1025.06 1025.03 1024.98 1024.92 1024.85 1024.78 1024.69 1024.60 1024.50 1024.40 1024.30 1024.21 1024.13 1024.07 1024.03 1023.99 1023.94 1023.87
1015.51 1016.31 1017.10 1017.85 1018.59 1019.30 1019.97 1020.61 1021.19 1021.70 1022.15 1022.53 1022.86 1023.16 1023.44 1023.71 1023.99 1024.26 1024.52 1024.76 1024.96 1025.11 1025.21 1025.27 1025.28 1025.26 1025.22 1025.18 1025.13 1025.08 1025.03 1024.95 1024.86 1024.75 1024.62 1024.48 1024.34 1024.22 1024.12 1024.04 1023.99 1023.94 1023.87
1014.89 1015.71 1016.54 1017.36 1018.18 1018.96 1019.70 1020.38 1020.97 1021.49 1021.92 1022.28 1022.61 1022.92 1023.23 1023.56 1023.91 1024.26 1024.60 1024.90 1025.15 1025.33 1025.43 1025.48 1025.47 1025.44 1025.41 1025.38 1025.37 1025.36 1025.36 1025.33 1025.27 1025.17 1025.03 1024.86 1024.67 1024.49 1024.33 1024.20 1024.10 1024.01 1023.91
1014.27 1015.08 1015.92 1016.78 1017.66 1018.51 1019.31 1020.04 1020.67 1021.19 1021.62 1021.97 1022.30 1022.62 1022.96 1023.34 1023.76 1024.19 1024.60 1024.97 1025.27 1025.47 1025.59 1025.64 1025.63 1025.61 1025.59 1025.60 1025.65 1025.71 1025.78 1025.82 1025.81 1025.74 1025.60 1025.41 1025.18 1024.93 1024.70 1024.49 1024.31 1024.15 1023.99
1013.71 1014.44 1015.25 1016.12 1017.04 1017.95 1018.81 1019.59 1020.26 1020.81 1021.25 1021.62 1021.95 1022.29 1022.67 1023.09 1023.57 1024.06 1024.54 1024.97 1025.31 1025.55 1025.70 1025.76 1025.77 1025.77 1025.79 1025.85 1025.97 1026.11 1026.26 1026.37 1026.43 1026.40 1026.27 1026.06 1025.79 1025.48 1025.16 1024.86 1024.59 1024.34 1024.10
1013.24 1013.84 1014.57 1015.42 1016.33 1017.28 1018.19 1019.03 1019.75 1020.35 1020.83 1021.23 1021.59 1021.96 1022.37 1022.84 1023.36 1023.91 1024.44 1024.92 1025.30 1025.58 1025.75 1025.84 1025.88 1025.92 1025.99 1026.12 1026.30 1026.52 1026.75 1026.94 1027.05 1027.05 1026.94 1026.72 1026.41 1026.04 1025.65 1025.26 1024.89 1024.55 1024.21
Thickness
5759 5759 5756 5755 5753 5752 5751 5750 5749 5747 5746 5744 5743 5742 5741 5740 5739 5738 5737 5736 5735 5734 5734 5733 5732 5731 5729 5728 5727 5726 5725 5724 5723 5722 5721 5721 5719 5718 5717 5716 5715 5714 5713
5759 5756 5753 5751 5750 5748 5747 5746 5745 5744 5742 5741 5740 5739 5738 5737 5736 5735 5734 5733 5732 5731 5730 5729 5728 5727 5726 5725 5724 5723 5722 5721 5720 5719 5718 5717 5716 5715 5714 5713 5712 5711 5710
5755 5752 5748 5747 5745 5744 5743 5742 5741 5740 5739 5738 5737 5736 5735 5733 5733 5732 5730 5729 5729 5728 5727 5726 5725 5724 5722 5721 5720 5720 5719 5718 5717 5716 5715 5714 5713 5712 5711 5709 5708 5707 5706
5749 5746 5744 5742 5741 5739 5738 5737 5736 5736 5735 5734 5733 5732 5731 5730 5729 5728 5727 5726 5725 5724 5723 5722 5721 5720 5719 5718 5717 5716 5716 5715 5714 5713 5712 5710 5709 5708 5707 5705 5704 5703 5701
5742 5740 5737 5736 5735 5734 5733 5732 5731 5731 5730 5729 5728 5728 5727 5725 5725 5724 5723 5722 5721 5720 5719 5718 5717 5716 5715 5714 5713 5712 5712 5711 5711 5710 5708 5706 5705 5704 5703 5701 5700 5698 5697
5734 5732 5730 5729 5729 5728 5727 5726 5726 5725 5725 5724 5723 5723 5722 5721 5720 5719 5718 5717 5716 5716 5715 5714 5713 5712 5710 5710 5709 5709 5708 5708 5707 5706 5704 5702 5700 5700 5698 5697 5695 5694 5692
5726 5725 5722 5722 5722 5721 5721 5721 5720 5720 5719 5719 5719 5717 5717 5716 5715 5714 5713 5712 5712 5711 5710 5709 5708 5707 5706 5705 5704 5704 5704 5703 5703 5701 5699 5697 5696 5695 5694 5692 5691 5689 5688
5717 5716 5715 5715 5715 5715 5715 5715 5714 5714 5714 5713 5713 5712 5711 5710 5709 5709 5708 5707 5707 5707 5706 5704 5704 5703 5702 5701 5700 5699 5699 5699 5698 5696 5694 5692 5691 5690 5689 5687 5686 5684 5682
5707 5707 5706 5706 5707 5707 5708 5708 5708 5708 5708 5707 5707 5706 5705 5705 5704 5703 5702 5702 5702 5701 5700 5699 5698 5698 5697 5696 5695 5695 5695 5694 5693 5691 5689 5687 5686 5685 5683 5682 5680 5678 5677
5697 5697 5697 5697 5699 5700 5700 5701 5701 5701 5701 5700 5700 5700 5699 5698 5698 5697 5696 5696 5696 5695 5695 5694 5693 5692 5691 5691 5690 5690 5689 5689 5688 5685 5683 5682 5681 5680 5678 5676 5674 5672 5671
5686 5687 5688 5689 5691 5692 5693 5694 5694 5694 5694 5694 5693 5693 5693 5692 5692 5691 5690 5689 5689 5689 5688 5688 5687 5687 5686 5686 5685 5685 5684 5683 5682 5679 5677 5676 5675 5674 5672 5670 5668 5666 5664
5674 5677 5680 5681 5683 5685 5686 5687 5687 5687 5687 5687 5687 5687 5687 5686 5686 5684 5683 5683 5682 5682 5682 5682 5681 5681 5681 5680 5680 5680 5679 5678 5676 5673 5671 5670 5669 5668 5666 5663 5661 5660 5658
5665 5668 5671 5673 5675 5677 5678 5679 5680 5680 5680 5680 5680 5681 5681 5680 5679 5678 5677 5676 5676 5676 5676 5675 5675 5675 5675 5675 5674 5674 5673 5672 5670 5667 5665 5664 5663 5661 5659 5657 5655 5653 5651
5655 5658 5662 5665 5667 5669 5670 5672 5673 5673 5673 5674 5674 5674 5674 5673 5673 5672 5671 5670 5670 5669 5670 5669 5669 5670 5670 5669 5669 5668 5667 5666 5664 5661 5659 5657 5656 5654 5653 5651 5649 5646 5645
5645 5649 5653 5656 5658 5661 5662 5664 5665 5665 5666 5666 5667 5667 5667 5667 5666 5665 5665 5664 5663 5663 5663 5663 5663 5664 5663 5663 5662 5662 5661 5659 5657 5655 5653 5651 5649 5647 5646 5644 5642 5640 5638
5636 5640 5644 5647 5650 5653 5655 5656 5657 5658 5658 5658 5659 5660 5660 5660 5659 5658 5657 5657 5656 5656 5656 5657 5657 5656 5656 5656 5655 5655 5654 5653 5651 5649 5646 5644 5642 5640 5638 5636 5634 5632 5630
5627 5631 5635 5638 5641 5644 5647 5649 5650 5650 5650 5650 5651 5651 5651 5650 5650 5650 5650 5649 5649 5649 5649 5649 5649 5648 5648 5648 5647 5647 5646 5646 5644 5642 5640 5637 5634 5632 5630 5628 5626 5624 5622
5617 5622 5625 5629 5631 5634 5638 5640 5641 5642 5642 5642 5642 5642 5643 5642 5642 5641 5642 5641 5641 5641 5641 5641 5640 5639 5639 5639 5638 5638 5638 5638 5637 5635 5632 5630 5627 5625 5622 5620 5618 5616 5614
5607 5611 5615 5618 5621 5625 5628 5630 5632 5633 5633 5633 5633 5633 5633 5634 5634 5633 5633 5634 5633 5633 5633 5633 5632 5631 5630 5630 5630 5630 5630 5630 5629 5627 5625 5623 5620 5618 5615 5612 5610 5608 5606
5598 5601 5604 5608 5612 5616 5618 5620 5622 5623 5623 5624 5624 5625 5625 5626 5625 5625 5625 5625 5625 5624 5624 5624 5623 5623 5622 5622 5623 5622 5622 5622 5621 5619 5617 5615 5613 5610 5608 5605 5602 5600 5597
5588 5592 5594 5598 5601 5604 5607 5610 5611 5612 5613 5613 5614 5616 5616 5616 5616 5616 5617 5616 5617 5616 5616 5616 5615 5614 5613 5614 5612 5611 5612 5613 5613 5611 5610 5608 5606 5603 5600 5598 5595 5592 5589
5579 5582 5585 5588 5591 5595 5597 5601 5603 5603 5603 5605 5605 5606 5606 5607 5607 5608 5608 5607 5608 5607 5607 5607 5606 5605 5605 5606 5604 5602 5600 5601 5602 5604 5602 5600 5598 5596 5593 5590 5587 5584 5581
5571 5573 5576 5579 5582 5585 5588 5590 5593 5594 5593 5594 5594 5595 5596 5596 5597 5597 5598 5599 5599 5599 5599 5598 5598 5597 5596 5596 5596 5594 5592 5591 5592 5594 5594 5593 5590 5588 5586 5583 5580 5576 5573
5560 5564 5566 5569 5572 5575 5579 5581 5583 5584 5584 5584 5585 5586 5587 5587 5587 5589 5589 5590 5590 5591 5591 5590 5590 5589 5588 5586 5586 5586 5585 5585 5582 5581 5583 5583 5582 5580 5578 5575 5572 5568 5566
5551 5554 5557 5560 5564 5567 5569 5572 5573 5574 5574 5574 5575 5577 5578 5578 5579 5580 5580 5581 5581 5582 5583 5582 5582 5581 5580 5579 5577 5576 5576 5575 5575 5573 5571 5571 5571 5571 5569 5567 5564 5560 5557
5542 5544 5548 5552 5555 5557 5560 5562 5562 5563 5564 5564 5565 5566 5568 5568 5569 5570 5571 5572 5573 5573 5574 5573 5573 5573 5572 5571 5569 5568 5567 5565 5564 5563 5561 5561 5560 5560 5560 5558 5555 5552 5549